Tracking 19245 objects as of 21-Aug-2018
HD Live streaming from Space Station
objects crossing your sky now

GLOBALSTAR M094

Track GLOBALSTAR M094 now!
10-day predictions
GLOBALSTAR M094 is classified as:


NORAD ID: 39074
Int'l Code: 2013-005C
Perigee: 1,420.5 km
Apogee: 1,421.0 km
Inclination: 52.0 °
Period: 114.1 minutes
Semi major axis: 7791 km
RCS: 3.814 m2 (large)
Launch date: February 6, 2013
Source: Globalstar (GLOB)
Launch site: TYURATAM MISSILE AND SPACE COMPLEX (TTMTR)

GLOBALSTAR M094 is part of Globalstar's second-generation satellite fleet, which began launching in 2010.
aabbcc
Your satellite tracking list
Your tracking list is empty




NASA's NSSDC Master Catalog

Two Line Element Set (TLE):
1 39074U 13005C   18232.38386977 -.00000090 +00000-0 +79325-4 0  9999
2 39074 051.9938 211.9913 0000351 158.4915 201.5966 12.62270066257564
Source of the keplerian elements: AFSPC